Location: Piotrkow Trybunalski
(51.4000°N, 19.6830°E)
Time: 15:45:39
(UTC+01:00)

Vanguard 2 - Pass Details

Date: 08 February 2023
Orbit: 553 x 2927 km, 32.9° (Epoch: 24 March)

Event Time Altitude Azimuth Distance (km) Brightness Sun altitude
Rises 03:20:08 0° 268° (W) 6,635 - -35.5°
Reaches altitude 10° 03:29:08 10° 244° (WSW) 5,758 - -34.2°
Maximum altitude 03:34:18 12° 226° (SW) 5,549 - -33.5°
Drops below altitude 10° 03:39:23 10° 209° (SSW) 5,598 - -32.7°
Exits shadow 03:43:01 - 197° (SSW) 5,789 11.7 -32.2°
Sets 03:47:53 0° 183° (S) 6,224 12.0 -31.5°
